Regional Weather Roundup
Issued by NWS

Home | Current Version | Previous Version | Text Only | Print | Product List | Glossary On
Versions: 1 2 3 4 5 6 7 8 9 10 11 12 13 14 15 16 17 18 19 20 21 22 23 24 25 26 27 28 29 30 31 32 33 34 35 36 37 38 39 40 41 42 43 44 45 46 47 48 49 50
000
ASUS42 KKEY 041410
RWRKEY

FLORIDA REGIONAL WEATHER ROUNDUP FOR THE FLORIDA KEYS
NATIONAL WEATHER SERVICE KEY WEST FLORIDA
1000 AM EDT FRI SEP 04 2015

...SOUTH FLORIDA AND THE KEYS...

CITY           SKY/WX    TMP DP  RH WIND       PRES   REMARKS
FORT MYERS     MOSUNNY   87  75  67 NE5       29.99R HX  96
SW REGIONAL AP SUNNY     87  76  69 N5        30.00R HX  97
NAPLES         MOSUNNY   88  75  66 NE6       29.99R HX  97
MIAMI          MOSUNNY   87  73  62 NW3       29.99R HX  94
WEST KENDALL   SUNNY     83  74  74 NW5       29.99R
HOMESTEAD      SUNNY     86  74  67 VRB2      29.99R HX  93
MARATHON       CLOUDY    87  78  74 VRB5      29.99R HX 100
BOCA CHICA NAS PTSUNNY   87  76  69 VRB5      29.99S HX  97
KEY WEST INTL  PTSUNNY   87  75  67 CALM      29.99S HX  96

...INTERNATIONAL WEATHER...

CITY           SKY/WX    TMP DP  RH WIND       PRES   REMARKS
NASSAU BAHAMAS MOSUNNY   86  75  70 W5        29.99R HX  95
CANCUN MEXICO  MOSUNNY   86  77  74 E8        29.96R HX  97
COZUMEL MEXICO MOSUNNY   81  77  89 E5        29.96R

ADJACENT COASTAL WATERS...

STATION/POSITION TIME  SKY/WX   TEMP    WIND        PRES    WAVE
                                AIR SEA DIR/SP/G            HT/PER
                 (UTC)          (F)     (DEG/KT/KT) (MB)    (FT/S)
PULASKI SHOAL LI 1300                                 N/A
SAND KEY         1350            87        CALM     1015.6R
SOMBRERO KEY     NOT AVBL
LONG KEY         1400            82 89  340/ 10/ 11 1016.3R
MOLASSES REEF    1400            84 87  290/  2/  3 1015.7R
FOWEY ROCKS      1400            84 87  270/  5/  5 1015.5R

$$


USA.gov is the U.S. government's official web portal to all federal, state and local government web resources and services.